| time (UTC) | temp F | wind direction | speed MPH | gust MPH | rain 1hr in | rain 24hr in | rain mn in | humidity % | barometer mb |
| 20260905094533 | 79 | 335 | 0.0 | 0.0 | 0.00 | 0.00 | 0.00 | 85 | 1011.2 |
| 20260905093024 | 79 | 335 | 0.0 | 0.0 | 0.00 | 0.00 | 0.00 | 84 | 1011.2 |
| 20260905091625 | 80 | 335 | 0.0 | 0.0 | 0.00 | 0.00 | 0.00 | 84 | 1011.1 |
| 20260905090021 | 80 | 335 | 0.0 | 0.0 | 0.00 | 0.00 | 0.00 | 83 | 1011.0 |
| 20260905084521 | 80 | 335 | 0.0 | 0.0 | 0.00 | 0.00 | 0.00 | 82 | 1010.9 |
| 20260905083021 | 81 | 335 | 0.0 | 0.0 | 0.00 | 0.00 | 0.00 | 81 | 1011.0 |
| 20260905081520 | 82 | 335 | 0.0 | 0.0 | 0.00 | 0.00 | 0.00 | 80 | 1010.9 |
| 20260905080019 | 82 | 335 | 0.0 | 1.0 | 0.00 | 0.00 | 0.00 | 81 | 1010.9 |
| 20260905074520 | 82 | 340 | 1.0 | 3.0 | 0.00 | 0.00 | 0.00 | 81 | 1010.7 |
| 20260905073017 | 81 | 5 | 0.0 | 1.0 | 0.00 | 0.00 | 0.00 | 83 | 1010.7 |
| 20260905071515 | 80 | 5 | 0.0 | 1.0 | 0.00 | 0.00 | 0.00 | 85 | 1010.9 |
| 20260905070022 | 80 | 5 | 0.0 | 0.0 | 0.00 | 0.00 | 0.00 | 85 | 1011.0 |
| 20260905064512 | 80 | 5 | 0.0 | 0.0 | 0.00 | 0.00 | 0.00 | 85 | 1011.2 |
| 20260905063011 | 80 | 5 | 0.0 | 0.0 | 0.00 | 0.00 | 0.00 | 85 | 1011.3 |
| 20260905061509 | 80 | 5 | 0.0 | 0.0 | 0.00 | 0.00 | 0.00 | 85 | 1011.4 |
| 20260905060010 | 81 | 5 | 0.0 | 0.0 | 0.00 | 0.00 | 0.00 | 83 | 1011.4 |
| 20260905054508 | 81 | 5 | 0.0 | 0.0 | 0.00 | 0.00 | 0.00 | 82 | 1011.4 |
| 20260905053004 | 81 | 5 | 0.0 | 0.0 | 0.00 | 0.00 | 0.00 | 81 | 1011.5 |
| 20260905051507 | 82 | 5 | 0.0 | 0.0 | 0.00 | 0.00 | 0.00 | 81 | 1011.4 |
| 20260905050000 | 81 | 5 | 0.0 | 0.0 | 0.00 | 0.00 | 0.00 | 81 | 1011.5 |
| 20260905044502 | 81 | 5 | 0.0 | 0.0 | 0.00 | 0.00 | 0.00 | 81 | 1011.6 |
| 20260905043100 | 82 | 5 | 0.0 | 0.0 | 0.00 | 0.00 | 0.00 | 80 | 1011.7 |
| 20260905041607 | 82 | 5 | 0.0 | 0.0 | 0.00 | 0.00 | 0.00 | 80 | 1011.6 |
| 20260905040059 | 82 | 5 | 0.0 | 0.0 | 0.00 | 0.00 | 0.00 | 79 | 1011.8 |
| 20260905040002 | 82 | 5 | 0.0 | 0.0 | 0.00 | 0.00 | 0.00 | 79 | 1011.8 |
| 20260905034610 | 83 | 5 | 0.0 | 0.0 | 0.00 | 0.00 | 0.00 | 79 | 1011.7 |
| 20260905033100 | 83 | 5 | 0.0 | 0.0 | 0.00 | 0.00 | 0.00 | 77 | 1011.8 |
| 20260905031559 | 84 | 5 | 0.0 | 0.0 | 0.00 | 0.00 | 0.00 | 77 | 1011.8 |
| 20260905024601 | 84 | 5 | 0.0 | 0.0 | 0.00 | 0.00 | 0.00 | 75 | 1011.7 |
| 20260905023056 | 85 | 5 | 0.0 | 0.0 | 0.00 | 0.00 | 0.00 | 74 | 1011.7 |
| 20260905021557 | 85 | 5 | 0.0 | 1.0 | 0.00 | 0.00 | 0.00 | 73 | 1011.5 |
| 20260905020054 | 86 | 5 | 0.0 | 0.0 | 0.00 | 0.00 | 0.00 | 70 | 1011.5 |
| 20260905014554 | 86 | 5 | 0.0 | 0.0 | 0.00 | 0.00 | 0.00 | 70 | 1011.2 |
| 20260905013053 | 87 | 5 | 0.0 | 0.0 | 0.00 | 0.00 | 0.00 | 69 | 1011.1 |
| 20260905011552 | 87 | 5 | 0.0 | 0.0 | 0.00 | 0.00 | 0.00 | 68 | 1011.0 |
| 20260905010052 | 88 | 227 | 0.0 | 0.0 | 0.00 | 0.00 | 0.00 | 68 | 1010.9 |
| 20260905004552 | 89 | 227 | 0.0 | 1.0 | 0.00 | 0.00 | 0.00 | 65 | 1010.8 |
| 20260905003051 | 91 | 227 | 0.0 | 0.0 | 0.00 | 0.00 | 0.00 | 62 | 1010.7 |
| 20260905001600 | 92 | 227 | 0.0 | 0.0 | 0.00 | 0.00 | 0.00 | 60 | 1010.6 |
| 20260905000107 | 93 | 227 | 0.0 | 1.0 | 0.00 | 0.00 | 0.00 | 56 | 1010.6 |
| 20260904234550 | 94 | 227 | 0.0 | 3.0 | 0.00 | 0.00 | 0.00 | 54 | 1010.7 |
| 20260904233106 | 95 | 229 | 1.0 | 3.0 | 0.00 | 0.00 | 0.00 | 52 | 1010.7 |
| 20260904231555 | 96 | 200 | 2.0 | 6.0 | 0.00 | 0.00 | 0.00 | 50 | 1010.7 |
| 20260904230049 | 96 | 194 | 2.0 | 6.0 | 0.00 | 0.00 | 0.00 | 51 | 1010.6 |
| 20260904224554 | 97 | 205 | 2.0 | 7.0 | 0.00 | 0.00 | 0.00 | 49 | 1010.6 |
| 20260904223101 | 96 | 200 | 4.0 | 7.0 | 0.00 | 0.00 | 0.00 | 49 | 1010.6 |
| 20260904221548 | 97 | 180 | 3.0 | 9.0 | 0.00 | 0.00 | 0.00 | 50 | 1010.5 |
| 20260904220045 | 97 | 207 | 3.0 | 9.0 | 0.00 | 0.00 | 0.00 | 50 | 1010.6 |
| 20260904214545 | 98 | 227 | 3.0 | 11.0 | 0.00 | 0.00 | 0.00 | 49 | 1010.6 |
| 20260904213043 | 97 | 222 | 3.0 | 10.0 | 0.00 | 0.00 | 0.00 | 50 | 1010.8 |
| 20260904211542 | 98 | 161 | 6.0 | 10.0 | 0.00 | 0.00 | 0.00 | 49 | 1011.0 |
| 20260904210049 | 97 | 234 | 4.0 | 10.0 | 0.00 | 0.00 | 0.00 | 47 | 1011.1 |
| 20260904204538 | 98 | 199 | 4.0 | 11.0 | 0.00 | 0.00 | 0.00 | 48 | 1011.3 |
| 20260904203038 | 99 | 198 | 3.0 | 9.0 | 0.00 | 0.00 | 0.00 | 48 | 1011.4 |
| 20260904201534 | 98 | 210 | 2.0 | 10.0 | 0.00 | 0.00 | 0.00 | 47 | 1011.7 |
| 20260904200033 | 98 | 211 | 4.0 | 10.0 | 0.00 | 0.00 | 0.00 | 47 | 1011.7 |
| 20260904193031 | 98 | 210 | 6.0 | 10.0 | 0.00 | 0.00 | 0.00 | 48 | 1012.0 |
| 20260904191530 | 97 | 201 | 4.0 | 9.0 | 0.00 | 0.00 | 0.00 | 51 | 1012.2 |
| 20260904190034 | 98 | 231 | 5.0 | 11.0 | 0.00 | 0.00 | 0.00 | 50 | 1012.4 |
| 20260904184528 | 97 | 225 | 4.0 | 9.0 | 0.00 | 0.00 | 0.00 | 53 | 1012.5 |
| 20260904183027 | 96 | 226 | 6.0 | 9.0 | 0.00 | 0.00 | 0.00 | 54 | 1012.7 |
| 20260904181532 | 96 | 240 | 4.0 | 8.0 | 0.00 | 0.00 | 0.00 | 54 | 1012.9 |
| 20260904180026 | 96 | 226 | 4.0 | 8.0 | 0.00 | 0.00 | 0.00 | 55 | 1013.1 |
| 20260904174526 | 97 | 210 | 5.0 | 8.0 | 0.00 | 0.00 | 0.00 | 53 | 1013.3 |
| 20260904173043 | 97 | 226 | 2.0 | 7.0 | 0.00 | 0.00 | 0.00 | 52 | 1013.4 |
| 20260904171525 | 97 | 210 | 4.0 | 8.0 | 0.00 | 0.00 | 0.00 | 49 | 1013.5 |
| 20260904170023 | 96 | 287 | 3.0 | 10.0 | 0.00 | 0.00 | 0.00 | 51 | 1013.6 |
| 20260904164521 | 96 | 200 | 4.0 | 9.0 | 0.00 | 0.00 | 0.00 | 51 | 1013.6 |
| 20260904163021 | 95 | 223 | 2.0 | 7.0 | 0.00 | 0.00 | 0.00 | 53 | 1013.7 |
| 20260904161519 | 95 | 302 | 2.0 | 6.0 | 0.00 | 0.00 | 0.00 | 53 | 1013.7 |
| 20260904160017 | 93 | 207 | 4.0 | 9.0 | 0.00 | 0.00 | 0.00 | 55 | 1013.6 |
| 20260904154515 | 94 | 285 | 3.0 | 11.0 | 0.00 | 0.00 | 0.00 | 55 | 1013.6 |
| 20260904153013 | 91 | 188 | 3.0 | 12.0 | 0.00 | 0.00 | 0.00 | 58 | 1013.6 |
| 20260904151511 | 92 | 204 | 3.0 | 7.0 | 0.00 | 0.00 | 0.00 | 60 | 1013.5 |
| 20260904150011 | 89 | 267 | 3.0 | 9.0 | 0.00 | 0.00 | 0.00 | 62 | 1013.5 |
| 20260904144506 | 88 | 289 | 1.0 | 8.0 | 0.00 | 0.00 | 0.00 | 65 | 1013.3 |
| 20260904143004 | 87 | 235 | 2.0 | 6.0 | 0.00 | 0.00 | 0.00 | 66 | 1013.3 |
| 20260904141502 | 86 | 200 | 4.0 | 12.0 | 0.00 | 0.00 | 0.00 | 67 | 1013.1 |
| 20260904140059 | 85 | 259 | 2.0 | 7.0 | 0.00 | 0.00 | 0.00 | 70 | 1013.3 |
| 20260904134603 | 83 | 217 | 4.0 | 10.0 | 0.00 | 0.00 | 0.00 | 73 | 1013.3 |
| 20260904131555 | 83 | 207 | 2.0 | 7.0 | 0.00 | 0.00 | 0.00 | 73 | 1013.3 |
| 20260904130051 | 82 | 212 | 3.0 | 8.0 | 0.00 | 0.00 | 0.00 | 74 | 1013.1 |
| 20260904124557 | 81 | 213 | 3.0 | 7.0 | 0.00 | 0.00 | 0.00 | 76 | 1013.0 |
| 20260904123046 | 80 | 234 | 3.0 | 6.0 | 0.00 | 0.00 | 0.00 | 77 | 1012.7 |
| 20260904121546 | 80 | 215 | 2.0 | 5.0 | 0.00 | 0.00 | 0.00 | 77 | 1012.5 |
| 20260904120045 | 79 | 209 | 4.0 | 7.0 | 0.00 | 0.00 | 0.00 | 77 | 1012.4 |
| 20260904114545 | 79 | 211 | 3.0 | 6.0 | 0.00 | 0.00 | 0.00 | 78 | 1012.2 |
| 20260904113045 | 79 | 214 | 3.0 | 7.0 | 0.00 | 0.00 | 0.00 | 78 | 1012.3 |
| 20260904111543 | 79 | 217 | 4.0 | 8.0 | 0.00 | 0.00 | 0.00 | 78 | 1012.3 |
| 20260904110043 | 80 | 215 | 4.0 | 6.0 | 0.00 | 0.00 | 0.00 | 76 | 1012.4 |
| 20260904104543 | 80 | 221 | 3.0 | 6.0 | 0.00 | 0.00 | 0.00 | 76 | 1012.5 |
| 20260904103042 | 80 | 226 | 1.0 | 5.0 | 0.00 | 0.00 | 0.00 | 76 | 1012.5 |
| 20260904101541 | 81 | 228 | 3.0 | 5.0 | 0.00 | 0.00 | 0.00 | 75 | 1012.6 |
| 20260904100041 | 81 | 232 | 3.0 | 6.0 | 0.00 | 0.00 | 0.00 | 74 | 1012.4 |